AO-07 1 07530U 74089B 19219.36617392 -.00000022 00000-0 14683-3 0 9992 2 07530 101.7476 186.5256 0011712 251.3553 277.7842 12.53639196046509 UO-11 1 14781U 84021B 19220.09883211 .00000038 00000-0 10716-4 0 9992 2 14781 97.6087 242.4272 0009310 145.7751 214.4065 14.83099040906236 LO-19 1 20442U 90005G 19220.29373433 -.00000007 00000-0 13590-4 0 9994 2 20442 98.6504 162.2155 0011922 6.1826 353.9502 14.32930032543620 HUBBLE 1 20580U 90037B 19219.71737269 .00000345 00000-0 10000-4 0 9995 2 20580 028.4683 241.1413 0002475 307.4821 000.4524 15.09251399408367 MET-2/21 1 22782U 93055A 19220.37601531 .00000012 00000-0 -28429-5 0 9997 2 22782 82.5501 122.8586 0023272 38.6578 98.2544 13.83821704309875 AO-27 1 22825U 93061C 19220.36562904 -.00000008 00000-0 14869-4 0 9998 2 22825 98.9060 210.1657 0007855 204.7094 155.3712 14.30063741349195 IO-26 1 22826U 93061D 19219.51609137 -.00000014 00000-0 12622-4 0 9996 2 22826 98.8999 209.2818 0008521 195.9391 164.1524 14.30397431349270 FO-29 1 24278U 96046B 19220.35063233 -.00000038 00000-0 -61000-5 0 9992 2 24278 98.5444 6.9004 0351338 108.6262 255.3365 13.53092991134656 NOAA-15 1 25338U 98030A 19220.50006195 .00000032 00000-0 32074-4 0 9996 2 25338 98.7449 241.6704 0011634 95.3674 264.8833 14.25925678104498 GO-32 1 25397U 98043D 19220.29201476 -.00000021 00000-0 10022-4 0 9998 2 25397 98.6902 159.8286 0000362 190.7945 169.3226 14.23668608 95071 ISS 1 25544U 98067A 19220.90319444 .00001952 00000-0 40757-4 0 9992 2 25544 51.6444 99.7220 0005882 233.3060 300.1689 15.51045494183439 NO-44 1 26931U 01043C 19219.48932366 -.00000046 00000-0 14328-4 0 9995 2 26931 67.0492 235.1782 0007410 275.1281 84.8974 14.30548705932097 SO-50 1 27607U 02058C 19219.56431725 -.00000058 00000-0 12839-4 0 9993 2 27607 64.5537 257.1176 0079472 246.9732 112.2976 14.75563039894399 CO-55 1 27844U 03031E 19219.95613127 .00000032 00000-0 33950-4 0 9997 2 27844 098.6840 227.4178 0008704 242.6504 117.3788 14.22188405835393 CO-57 1 27848U 03031J 19219.96258756 .00000016 00000-0 27191-4 0 9997 2 27848 098.6917 227.9350 0008526 255.7244 104.2987 14.21782388835257 RS-22 1 27939U 03042A 19220.73327006 .00000098 00000-0 26233-4 0 9998 2 27939 98.0485 355.5729 0011756 265.6139 94.3723 14.66794460848021 NOAA-18 1 28654U 05018A 19220.42757451 .00000062 00000-0 58201-4 0 9996 2 28654 99.0920 268.1475 0014827 38.9790 321.2446 14.12443164732685 CO-58 1 28895U 05043F 19219.82292862 .00000084 00000-0 24997-4 0 9992 2 28895 97.9659 0.8545 0016647 188.7411 171.3504 14.63680092734818 Falconsat-3 1 30776U 07006E 19220.11777239 .00001840 00000-0 52190-4 0 9991 2 30776 35.4349 128.8153 0003238 225.5751 134.4711 15.36334437688444 CO-65 1 32785U 08021C 19219.84023578 .00000148 00000-0 21542-4 0 9996 2 32785 97.5509 217.1928 0014719 96.0232 264.2663 14.88327993611142 AAUSAT2 1 32788U 08021F 19219.78979279 .00000700 00000-0 69327-4 0 9997 2 32788 097.4962 233.3033 0012753 038.9565 321.2572 14.94762855612303 DO-64 1 32789U 08021G 19220.21418579 .00001249 00000-0 87343-4 0 9996 2 32789 97.4609 268.3468 0010901 318.1262 41.9131 15.07036312614577 CO-66 1 32791U 08021J 19219.97558481 .00000218 00000-0 27430-4 0 9993 2 32791 97.5285 223.3454 0014925 72.6692 287.6158 14.90845771611603 RS-30 1 32953U 08025A 19220.67137517 .00000020 00000-0 75656-4 0 9993 2 32953 82.5021 113.0673 0020203 19.6602 340.5254 12.43090763508645 PRISM 1 33493U 09002B 19220.27231678 .00000932 00000-0 87026-4 0 9994 2 33493 98.1208 143.1453 0015784 21.9159 338.2733 14.96694573572710 NOAA-19 1 33591U 09005A 19220.48307279 .00000076 00000-0 66464-4 0 9992 2 33591 99.1822 212.8414 0013067 233.6559 126.3406 14.12369977541074 TISAT-1 1 36799U 10035E 19220.48061528 .00000103 00000-0 16558-4 0 9994 2 36799 98.1619 14.3351 0010864 280.4109 79.5884 14.91129519492334 JUGNU 1 37839U 11058B 19219.82999883 .00000295 00000-0 15617-4 0 9993 2 37839 19.9627 30.7320 0018835 159.6839 334.5229 14.12655069404350 SRMSAT 1 37841U 11058D 19219.94844774 .00000292 00000-0 15153-4 0 9999 2 37841 19.9729 87.8266 0011846 29.0262 91.6500 14.10635967403796 AO-71 1 37854U 11061E 19220.43586220 .00000454 00000-0 31481-4 0 9994 2 37854 101.6974 144.7574 0160344 275.1623 83.1308 15.06513356424630 HRBE 1 37855U 11061F 19220.24241087 .00000759 00000-0 46101-4 0 9996 2 37855 101.7103 141.7862 0173119 287.0062 71.2244 15.05522566424387 ALMASAT-1 1 38078U 12006B 19219.70953448 .00035551 43654-5 18964-3 0 9994 2 38078 69.4248 123.0240 0156726 184.9803 200.6024 15.65126209405317 HORYU-2 1 38340U 12025D 19219.54696323 .00000094 00000-0 21729-4 0 9996 2 38340 098.3258 259.6247 0010709 331.3695 028.6924 14.75734687378109 RS-40 1 38735U 12041C 19220.67564094 -.00000005 00000-0 -10788-3 0 9993 2 38735 82.4743 196.2977 0017648 121.2890 238.9920 12.42578526318889 BEESAT-3 1 39135U 13015F 19220.15825126 .00000556 00000-0 37317-4 0 9996 2 39135 64.8678 235.9377 0028211 310.4018 49.4646 15.17530624347909 BEESAT-2 1 39136U 13015G 19220.08247161 .00000337 00000-0 26982-4 0 9999 2 39136 64.8675 240.1517 0021675 301.5222 58.3786 15.16951329347818 ZACUBE-1 1 39417U 13066B 19220.10306045 .00000126 00000-0 22338-4 0 9994 2 39417 97.5620 230.7717 0057745 227.6961 131.9351 14.81132130308506 TRITON-1 1 39427U 13066M 19220.58152691 .00000198 00000-0 39583-4 0 9992 2 39427 97.6801 194.8248 0113990 3.3537 356.8407 14.67860842305803 GOMX-1 1 39430U 13066Q 19220.70702422 .00000115 00000-0 29349-4 0 9991 2 39430 97.7507 173.9100 0152541 93.2978 268.5692 14.59267346304049 LO-74 1 39440U 13066AA 19220.46413772 .00000134 00000-0 25780-4 0 9998 2 39440 97.6039 215.9081 0078681 280.3148 78.9199 14.75870446307467 AO-73 1 39444U 13066AE 19220.00824986 .00000172 00000-0 27604-4 0 9994 2 39444 97.5600 232.6767 0056975 221.5160 138.1720 14.81954229307383 SPROUT 1 39770U 14029E 19220.35648340 .00000460 00000-0 57021-4 0 9998 2 39770 97.8871 323.3267 0007688 281.2093 78.8236 14.87380781282360 DUCHIFAT-1 1 40021U 14033M 19219.75464893 .00000278 00000-0 34259-4 0 9990 2 40021 97.9227 144.5141 0011498 242.9917 117.0127 14.90654370279008 NANOSATCBR1 1 40024U 14033Q 19219.74070893 .00000264 00000-0 33443-4 0 9994 2 40024 97.9120 141.7952 0010795 246.9359 113.0720 14.89865484278894 EO-79 1 40025U 14033R 19220.57254623 .00000156 00000-0 22566-4 0 9997 2 40025 97.9041 140.1733 0010976 250.5011 109.5021 14.88962645278894 DTUSAT-2 1 40030U 14033W 19220.04477247 .00000160 00000-0 23194-4 0 9997 2 40030 97.8956 137.7221 0010446 247.5378 112.4732 14.88553212278744 EO-80 1 40032U 14033Y 19219.85059963 .00000178 00000-0 25171-4 0 9993 2 40032 97.8963 137.5296 0010424 249.1229 110.8872 14.88496209278708 ANTELSAT 1 40034U 14033AA 19220.07144119 .00000104 00000-0 23005-4 0 9992 2 40034 97.7548 85.0924 0057376 294.7269 64.7975 14.74118465276091 VELOX-1 1 40057U 14034E 19220.73365157 .00000186 00000-0 33559-4 0 9993 2 40057 98.2417 344.9370 0012137 73.0646 287.1893 14.77686660275305 DAURIA DX 1 1 40071U 14037C 19220.69009428 .00000044 00000-0 13181-4 0 9995 2 40071 98.4330 17.1934 0009479 65.0597 295.1598 14.81280893274801 UKUBE-1 1 40074U 14037F 19220.39979691 .00000182 00000-0 28988-4 0 9997 2 40074 98.4409 25.2472 0005957 61.8235 298.3588 14.84074842275171 HODOYOSHI-1 1 40299U 14070B 19220.68684110 .00000444 00000-0 21585-4 0 9991 2 40299 97.3471 299.3808 0011837 217.1215 246.4378 15.23403437264036 CHUBUSAT-1 1 40300U 14070C 19220.75282457 .00000449 00000-0 22552-4 0 9990 2 40300 97.3237 293.6388 0018725 236.0263 279.2038 15.22124859263780 QSAT-EOS 1 40301U 14070D 19220.72352690 .00001288 00000-0 52485-4 0 9995 2 40301 97.3250 296.9116 0024806 215.3157 243.8947 15.26015311264075 FIREBIRD FU3 1 40377U 15003B 19220.01727653 .00001266 00000-0 53948-4 0 9993 2 40377 99.1159 210.5679 0125598 283.0066 75.7165 15.18926289249560 FIREBIRD FU4 1 40378U 15003C 19220.39946503 .00001171 00000-0 50209-4 0 9994 2 40378 99.1164 211.1080 0125802 281.6016 77.1114 15.18935708249620 GRIFEX 1 40379U 15003D 19220.43551495 .00000968 00000-0 45622-4 0 9998 2 40379 99.1159 204.9033 0134063 300.8993 57.9108 15.15584193249275 NO-84 1 40654U 15025D 19220.48725775 .00009752 00000 0 13311-3 0 6891 2 40654 54.9888 300.9496 0138787 96.6500 265.0264 15.47777166120317 NO-83 1 40655U 15025E 19220.43518584 .00055504 11788-4 22903-3 0 8463 2 40655 54.9636 173.8214 0047222 165.7752 194.4624 15.84634121121752 DEORBITSAIL 1 40719U 15032E 19220.27098756 .00000236 00000-0 40876-4 0 9990 2 40719 97.9027 111.0550 0017132 138.1900 222.0622 14.76765731219720 NUDT-PHONESAT 1 40900U 15049B 19220.76738334 .00001660 00000-0 73684-4 0 9992 2 40900 97.4369 229.6023 0013412 12.9235 92.7930 15.22909500215438 XW-2A 1 40903U 15049E 19220.73163735 .00001706 00000-0 42014-4 0 9993 2 40903 97.3340 263.7765 0012658 326.9558 172.2042 15.41972414218119 XW-2C 1 40906U 15049H 19220.76892103 .00000231 00000-0 15570-4 0 9996 2 40906 97.4689 222.0022 0015649 27.4287 77.5198 15.15708023214735 XW-2D 1 40907U 15049J 19220.73658653 .00000685 00000-0 39140-4 0 9996 2 40907 97.4665 221.6484 0014875 25.3347 60.0230 15.15901771214741 LILACSAT-2 1 40908U 15049K 19220.68896637 .00000082 00000-0 81255-5 0 9993 2 40908 97.4801 220.3921 0016943 30.7911 58.0715 15.13821032214521 XW-2E 1 40909U 15049L 19220.73486002 .00000927 00000-0 49052-4 0 9997 2 40909 97.4605 224.5427 0014273 20.9245 65.8135 15.17839571214934 XW-2F 1 40910U 15049M 19220.78233484 .00000734 00000-0 40089-4 0 9995 2 40910 97.4632 223.7577 0015530 17.7779 68.9546 15.17351939214764 XW-2B 1 40911U 15049N 19220.77185263 .00000280 00000-0 18113-4 0 9995 2 40911 97.4685 222.3409 0014850 26.0613 60.6571 15.15828778214648 DCBB 1 40912U 15049P 19220.73560274 .00000993 00000-0 49653-4 0 9995 2 40912 97.4498 227.4261 0015037 0.7877 85.8829 15.19672069215068 TW-1C 1 40926U 15051B 19220.71866661 .00012027 00000-0 17081-3 0 9990 2 40926 97.1314 266.8413 0008506 169.9653 330.9252 15.56516604218099 TW-1A 1 40928U 15051D 19220.79609020 .00002797 00000-0 69774-4 0 9994 2 40928 97.1430 250.9676 0009395 244.8747 202.4279 15.40987885217041 IO-86 1 40931U 15052B 19215.07574832 .00000640 00000-0 41238-7 0 9999 2 40931 005.9990 092.8905 0012958 075.9377 284.2056 14.76610632207986 LQSat 1 40958U 15057A 19220.50832341 -.00000014 00000-0 54205-5 0 9991 2 40958 97.8956 288.3245 0019599 79.5056 280.8359 14.73085523206280 AO-85 1 40967U 15058D 19220.34126417 .00000076 00000 0 26905-4 0 7735 2 40967 64.7789 4.5712 0194807 186.5444 173.3115 14.75971321115210 ATHENOXAT-1 1 41168U 15077C 19220.24973086 .00001502 00000-0 43861-4 0 9997 2 41168 14.9872 205.5404 0011588 76.9099 283.2514 15.13692717201657 ChubuSat-2 1 41338U 16012B 19219.92753463 .00000263 00000-0 13661-4 0 9992 2 41338 031.0021 185.5123 0013865 240.6911 119.2339 15.00164238190467 ChubuSat-3 1 41339U 16012C 19220.88909955 .00000196 00000-0 84416-5 0 9991 2 41339 31.0098 177.4319 0013538 258.6157 101.2958 15.00338731190602 Horyu-4 1 41340U 16012D 19219.90310967 .00000377 00000-0 21849-4 0 9994 2 41340 31.0041 174.6224 0014040 266.7582 93.1448 15.01285208190566 OUFTI-1 1 41458U 16025C 19219.82433990 .00001052 00000-0 57498-4 0 9991 2 41458 098.1015 309.2196 0166199 188.0297 171.8264 15.05887200180111 e-st@r-II 1 41459U 16025D 19220.84971041 .00002245 00000-0 11786-3 0 9994 2 41459 98.1027 309.9289 0168020 186.1243 173.7913 15.05537398180246 AAUSAT4 1 41460U 16025E 19220.82776769 .00001771 00000-0 91996-4 0 9999 2 41460 98.0966 311.2745 0158131 178.2356 181.9432 15.07440791180374 LO-87 1 41557U 16033B 19220.75625478 .00000934 00000-0 37627-4 0 9998 2 41557 97.4176 307.9609 0015396 114.9888 245.2952 15.27290196177887 NuSat2 1 41558U 16033C 19220.79254228 .00000987 00000-0 37422-4 0 9995 2 41558 97.4204 309.2091 0014440 115.0517 245.2224 15.29199102177946 Lapan A3 1 41603U 16040E 19220.80635112 .00000164 00000-0 10799-4 0 9996 2 41603 97.3565 278.2488 0012408 216.1557 236.6808 15.19730002173509 Swayam 1 41607U 16040J 19219.39122836 .00001162 00000-0 51728-4 0 9992 2 41607 097.3622 280.5059 0012515 210.1182 149.9336 15.23381760173447 Pratham 1 41783U 16059A 19220.14220546 .00000020 00000-0 13210-4 0 9995 2 41783 98.0638 278.6009 0032648 223.6394 136.2225 14.63002719152926 AlSat 1N 1 41789U 16059G 19220.70286866 .00000065 00000-0 21395-4 0 9992 2 41789 98.0670 281.2553 0027727 211.0568 148.8993 14.64254044153112 ScatSat 1 41790U 16059H 19220.68427652 .00000006 00000-0 12392-4 0 9993 2 41790 98.2060 264.5269 0005549 153.5642 206.5837 14.50886864151728 TY-1 1 41844U 16066D 19220.70601255 .00000653 00000-0 29540-4 0 9998 2 41844 97.4053 227.4749 0015627 14.6557 74.2790 15.24333582152468 Pegasus-1 1 41846U 16066F 19220.06262879 .00000192 00000-0 38580-4 0 9996 2 41846 98.7077 261.0536 0368657 88.7070 275.6314 14.37597062143797 CAS-2T 1 41847U 16066G 19220.68290447 .00000030 00000-0 14172-4 0 9999 2 41847 98.7019 262.2125 0367038 83.2902 280.9906 14.37998273144322 EO-88 1 42017U 17008BX 19219.61264882 .00001143 00000-0 47813-4 0 9995 2 42017 97.4001 286.1867 0006211 10.0380 350.0981 15.25617259137535 nSIGHT1 1 42726U 98067MF 19220.11835049 .00021995 00000-0 16208-3 0 9992 2 42726 51.6364 50.4771 0004065 11.0408 349.0680 15.72957559125756 CAS-4B 1 42759U 17034B 19220.76016419 -.00000001 00000-0 13453-4 0 9992 2 42759 43.0195 310.2954 0011546 219.0967 283.3019 15.09607697118552 CAS-4A 1 42761U 17034D 19220.71872847 .00000171 00000-0 23943-4 0 9997 2 42761 43.0198 310.0274 0012187 219.6493 272.1169 15.09686380118540 UCLSat 1 42765U 17036A 19220.13525467 .00000879 00000-0 40501-4 0 9996 2 42765 97.3474 277.0588 0012913 57.7497 302.4989 15.22812319118146 NIUSat 1 42766U 17036B 19220.74911059 .00000664 00000-0 32786-4 0 9998 2 42766 97.3469 275.9557 0016845 46.2969 313.9659 15.21166052117997 LituanicaSAT 2 1 42768U 17036D 19219.71749206 .00001596 00000-0 70814-4 0 9997 2 42768 97.3511 276.2803 0016319 49.3068 310.9584 15.22914015117923 Aalto 1 1 42775U 17036L 19219.71571201 .00000588 00000-0 29190-4 0 9994 2 42775 97.3458 275.2810 0015259 49.8469 310.4101 15.21385026117811 URSA MAIOR 1 42776U 17036M 19220.72432617 .00000590 00000-0 29165-4 0 9990 2 42776 97.3466 276.4296 0014998 46.6226 313.6256 15.21522663117970 Max Valier Sat 1 42778U 17036P 19220.74277904 .00000666 00000-0 32041-4 0 9991 2 42778 97.3507 277.2756 0013665 51.0630 309.1822 15.22074560118000 Pegasus 1 42784U 17036V 19219.64219830 .00000871 00000-0 40439-4 0 9997 2 42784 97.3477 276.3811 0013505 59.6203 300.6367 15.22558191117868 NUDATSat 1 42787U 17036Y 19220.46199883 .00001017 00000-0 45400-4 0 9993 2 42787 97.3513 277.9441 0013303 47.5507 312.6854 15.23551377117872 SUCHAI 1 1 42788U 17036Z 19219.63556369 .00001032 00000-0 46782-4 0 9998 2 42788 97.3483 276.7075 0013061 59.0185 301.2333 15.22984946117956 SKCUBE 1 42789U 17036AA 19219.72036913 .00000972 00000-0 44378-4 0 9998 2 42789 097.3479 276.7236 0012922 058.8764 301.3739 15.22880243117884 VZLUSAT 1 1 42790U 17036AB 19219.72645011 .00001292 00000-0 56910-4 0 9996 2 42790 097.3495 277.2264 0012475 058.2212 302.0239 15.23547578117915 VENTA 1 1 42791U 17036AC 19219.75974573 .00000933 00000-0 42717-4 0 9999 2 42791 097.3477 276.8134 0012571 059.3449 300.9025 15.22889926117889 Robusta 1B 1 42792U 17036AD 19219.64574783 .00001033 00000-0 46749-4 0 9998 2 42792 97.3481 276.8107 0012521 59.8796 300.3680 15.23050075117898 D-SAT 1 42794U 17036AF 19219.93572963 .00000235 00000-0 26012-4 0 9994 2 42794 097.5358 262.4169 0125820 334.8507 024.6617 14.91116016115826 TechnoSat 1 42829U 17042E 19220.75083413 -.00000033 00000-0 20606-5 0 9990 2 42829 97.5577 111.4938 0012706 248.0891 111.8977 14.90986261112545 TOMSK-TPU 120 1 42910U 98067MZ 19220.86237133 .00084188 00000-0 28234-3 0 9994 2 42910 51.6325 21.6244 0003246 354.5312 117.6107 15.89385147113152 TANYUSHA 2 1 42912U 98067NB 19220.83779523 .00198285 27917-4 35417-3 0 9992 2 42912 51.6347 13.1817 0005014 322.3450 149.6214 16.01316637113260 TNS 0-2 1 42914U 98067ND 19219.91083839 .00078323 13391-4 26161-3 0 9996 2 42914 51.6328 26.8769 0002948 329.1509 30.9323 15.90324533112994 QIKCOM-1 1 42983U 98067NF 19220.79333068 .00002305 00000-0 35370-4 0 9991 2 42983 51.6398 83.6352 0003578 323.9452 36.1299 15.59091560101315 AO-91 1 43017U 17073E 19219.74493040 .00000615 00000-0 53561-4 0 9992 2 43017 97.7214 139.1447 0258128 355.8035 4.1010 14.78593198 92654 EcAMSat 1 43019U 98067NG 19220.10531974 .00005080 00000-0 63812-4 0 9998 2 43019 51.6409 81.3365 0003904 299.4996 60.5608 15.61655526183609 PICSAT 1 43132U 18004X 19220.40527884 .00000963 00000-0 43135-4 0 9996 2 43132 97.4854 288.1185 0011407 79.4258 280.8263 15.23649419 87225 AO-92 1 43137U 18004AC 19220.40070151 .00000739 00000-0 33937-4 0 9991 2 43137 97.4845 288.0835 0010981 80.9924 279.2555 15.23523344 87217 TianYi 2 1 43155U 18008A 19220.86602413 .00000850 00000-0 54274-4 0 9998 2 43155 97.4843 292.3269 0018663 144.9959 320.0438 15.11189428 85556 Zhou Enlai 1 43156U 18008B 19220.73007088 .00000860 00000-0 55612-4 0 9990 2 43156 97.4893 292.0811 0015851 142.5968 316.4494 15.10695229 85508 TianYi 6 1 43158U 18008D 19220.79589402 .00000389 00000-0 27579-4 0 9990 2 43158 97.4849 291.5736 0014913 140.2351 356.2241 15.10280496 85474 S-Net G 1 43186U 18014G 19219.70158622 .00000556 00000-0 53761-4 0 9991 2 43186 97.7061 127.4221 0010545 189.5901 170.5121 14.96662702 82618 S-Net H 1 43187U 18014H 19220.16940766 .00000492 00000-0 48168-4 0 9996 2 43187 97.7059 127.8701 0010576 187.7874 172.3185 14.96663268 82681 S-Net J 1 43188U 18014J 19220.16921404 .00000508 00000-0 49535-4 0 9992 2 43188 97.7062 127.8883 0010572 187.9775 172.1280 14.96662852 82687 S-Net K 1 43189U 18014K 19220.57069227 .00000428 00000-0 42530-4 0 9993 2 43189 97.7059 128.2626 0010580 186.4312 173.6775 14.96663054 81290 FMN 1 1 43192U 18015A 19220.75355598 .00001671 00000-0 70847-4 0 9990 2 43192 97.4062 347.8730 0017749 112.3847 358.1777 15.24387711 84093 Shaonian Xing 1 43199U 18015H 19220.74768096 .00001217 00000-0 51641-4 0 9994 2 43199 97.3845 346.8856 0018567 122.8820 346.9545 15.24869862 84148 1KUNS-PF 1 43466U 98067NP 19220.74544766 .00016645 00000-0 15421-3 0 9998 2 43466 51.6373 75.0153 0000198 33.8158 326.2851 15.67637271 70927 UBAKUSAT 1 43467U 98067NQ 19220.74653332 .00009766 00000-0 10836-3 0 9990 2 43467 51.6373 80.2791 0001586 258.4398 101.6419 15.63661882 70866 Irazu 1 43468U 98067NR 19219.80614291 .00026302 00000-0 20887-3 0 9999 2 43468 51.6361 75.4536 0000190 88.4239 271.6781 15.71063882170824 EnduroSat One 1 43551U 98067NZ 19219.86595418 .00012264 00000-0 13310-3 0 9992 2 43551 051.6375 087.1487 0004990 341.8301 018.2515 15.63941872060929 EQUISat 1 43552U 98067PA 19220.08012903 .00009978 00000-0 11549-3 0 9992 2 43552 51.6388 87.8559 0005399 340.5354 19.5433 15.62529843 60897 UiTMSat 1 1 43589U 98067PD 19220.07847333 .00011636 00000-0 13262-3 0 9992 2 43589 51.6361 88.5311 0004789 350.2281 9.8620 15.62737900 56622 Maya 1 1 43590U 98067PE 19220.00901942 .00010886 00000-0 12439-3 0 9995 2 43590 51.6362 88.8222 0004937 350.3258 9.7640 15.62753255 56542 Bhutan 1 1 43591U 98067PF 19219.67811574 .00011672 00000-0 13267-3 0 9992 2 43591 51.6372 90.3877 0005040 349.9093 10.1799 15.62803786 56495 SiriusSat 1 1 43595U 98067PG 19219.88285118 .00010460 00000-0 12356-3 0 9990 2 43595 051.6364 090.9797 0002592 304.1227 055.9521 15.61940459055686 SiriusSat 2 1 43596U 98067PH 19219.85433747 .00010734 00000-0 12743-3 0 9995 2 43596 051.6374 091.5788 0003129 304.2310 055.8387 15.61776927055671 Tanusha-3 1 43597U 98067PJ 19220.75812832 .00013076 00000-0 14354-3 0 9995 2 43597 51.6358 84.7957 0002719 326.1092 33.9729 15.63582333 55844 SurfSat 1 43614U 18070B 19219.90585645 .00002382 00000-0 64284-4 0 9991 2 43614 093.0249 024.3788 0018591 109.2494 251.0773 15.37683824050122 CP-7 DAVE 1 43615U 18070C 19220.43494059 .00001904 00000-0 51554-4 0 9995 2 43615 93.0248 24.5974 0018630 106.9226 253.4072 15.37597702 50208 ELFIN-B 1 43616U 18070D 19219.90105513 .00003492 00000-0 92287-4 0 9992 2 43616 093.0216 024.2871 0019437 111.9613 248.3709 15.38285611050135 ELFIN-A 1 43617U 18070E 19220.54395205 .00002837 00000-0 74928-4 0 9998 2 43617 93.0271 24.8070 0018666 107.0792 253.2508 15.38333686 50230 STARS-Me Mother 1 43640U 98067PQ 19219.88004727 .00006598 00000-0 89199-4 0 9993 2 43640 051.6376 095.4915 0004560 286.9065 073.1427 15.59091244047556 CubeBel 1 1 43666U 18083E 19220.85816351 .00000940 00000-0 50005-4 0 9993 2 43666 97.5178 244.9826 0015714 16.4313 108.3849 15.17653006 43043 Changshagaoxin 1 43669U 18083H 19220.77806401 .00000571 00000-0 32420-4 0 9993 2 43669 97.5044 244.0558 0011188 12.7072 347.4441 15.16839150 42973 Ten-Koh 1 43677U 18084G 19220.52034233 .00000129 00000-0 19116-4 0 9998 2 43677 97.8563 333.9331 0017475 112.7193 247.5874 14.90181279 42184 PO-101 1 43678U 18084H 19218.44385147 .00000038 00000-0 94890-5 0 9992 2 43678 97.8572 332.4939 0010699 135.6882 224.5162 14.91564002 41918 IRVINE 01 1 43693U 18088D 19219.92986433 .00001696 00000-0 73261-4 0 9991 2 43693 085.0352 284.9394 0018773 016.1816 344.0021 15.21523925041002 QO-100 1 43700U 18090A 19220.65723966 .00000126 00000-0 00000 0 0 9998 2 43700 0.0125 99.9871 0001645 44.3421 74.9129 1.00272450 2804 Reaktor Hello World 1 43743U 18096AA 19220.89662574 .00001036 00000-0 42130-4 0 9990 2 43743 97.4572 290.8344 0018906 151.2544 319.9111 15.26685561 38543 MinXSS-2 1 43758U 18099A 19220.13854548 .00000486 00000-0 49106-4 0 9998 2 43758 97.7424 291.5903 0016461 154.5164 205.6872 14.95432098 36975 AO-95 1 43770U 18099N 19219.77474134 -.00000123 00000-0 -59590-5 0 9998 2 43770 97.7428 290.9987 0015103 161.4928 198.6845 14.94788500 36900 RANGE-B 1 43772U 18099Q 19220.16171769 .00000405 00000-0 42311-4 0 9996 2 43772 97.7483 291.5744 0015129 147.8670 212.3476 14.94901920 36953 RANGE-A 1 43773U 18099R 19220.43575291 -.00000074 00000-0 -15495-5 0 9993 2 43773 97.7375 291.5103 0014429 146.8779 213.3348 14.94819643 36997 MOVE-II 1 43780U 18099Y 19220.93657694 .00000117 00000-0 15885-4 0 9992 2 43780 97.7402 292.1964 0013877 157.1797 203.0041 14.95086308 37069 SNUSat 2 1 43782U 18099AA 19220.26234977 .00000112 00000-0 15453-4 0 9991 2 43782 97.7420 291.5766 0013700 147.6164 212.5900 14.95068767 36978 SnugLite 1 43784U 18099AC 19220.24966310 -.00000209 00000-0 -13756-4 0 9997 2 43784 97.7388 291.4826 0015786 155.8515 204.3449 14.95152975 36989 ITASat 1 1 43786U 18099AE 19220.78298765 -.00000260 00000-0 -18417-4 0 9996 2 43786 97.7440 292.1846 0015928 153.1581 207.0467 14.95155775 37063 EAGLET 1 1 43790U 18099AJ 19219.78345876 -.00000307 00000-0 -22463-4 0 9993 2 43790 97.7431 291.3121 0013912 160.6127 199.5626 14.95528072 36611 ESEO 1 43792U 18099AL 19219.78132602 -.00000391 00000-0 -30051-4 0 9991 2 43792 97.7411 291.2568 0013810 157.5625 202.6203 14.95516923 36675 CSIM 1 43793U 18099AM 19220.76487152 .00000342 00000-0 35858-4 0 9999 2 43793 97.7379 292.1268 0013986 151.6092 208.5894 14.95731266 36796 Astrocast 0.1 1 43798U 18099AS 19220.28058757 .00000538 00000-0 53381-4 0 9994 2 43798 97.7419 291.8477 0013625 139.6288 220.5947 14.95743933 36985 JO-97 1 43803U 18099AX 19220.96399216 .00000918 00000-0 88357-4 0 9997 2 43803 97.7400 292.2691 0015986 153.3460 206.8608 14.95296722 37084 Suomi 100 1 43804U 18099AY 19220.16051643 .00000365 00000-0 38308-4 0 9996 2 43804 97.7400 291.4745 0015952 155.4390 204.7594 14.95291436 36979 Al Farabi 2 1 43805U 18099AZ 19220.75617407 .00000587 00000-0 58297-4 0 9993 2 43805 97.7403 292.0819 0016131 153.6287 206.5758 14.95353056 37067 PWSat 2 1 43814U 18099BJ 19220.32068832 .00010054 00000-0 79782-3 0 9999 2 43814 97.7763 293.2119 0015115 153.3140 206.8901 15.00618952 36448 CHOMPTT 1 43855U 18104G 19220.57238541 .00000979 00000-0 40340-4 0 9998 2 43855 85.0355 22.7928 0019300 122.0702 238.2413 15.22435937 35765 ISAT 1 43879U 18111D 19220.82707168 .00000694 00000-0 66955-4 0 9990 2 43879 97.7142 128.0876 0012314 207.1309 152.9270 14.96011700 31580 UWE-4 1 43880U 18111E 19220.32238217 -.00000308 00000-0 -22153-4 0 9997 2 43880 97.7152 127.7021 0011343 210.7400 149.3159 14.96253615 31516 Sparrow 1 43881U 18111F 19220.78365841 -.00000210 00000-0 -13409-4 0 9998 2 43881 97.7158 128.1838 0011416 207.5050 152.5569 14.96302822 31583 Lume 1 1 43908U 18111AJ 19220.28001063 .00000722 00000-0 32136-4 0 9990 2 43908 97.2856 124.1462 0021846 168.4670 191.7073 15.24395827 34153 FO-98 1 43933U 19003B 19220.72495700 .00000474 00000-0 23899-4 0 9993 2 43933 97.2779 276.6346 0016549 265.8940 245.2903 15.21678146 30816 FO-99 1 43937U 19003F 19220.73702804 .00000936 00000-0 41721-4 0 9991 2 43937 97.2732 277.0795 0023021 251.2128 257.2083 15.23646519 30859 Delphini 1 1 44030U 98067PW 19219.86483122 .00008098 00000-0 11558-3 0 9995 2 44030 051.6383 099.8966 0004130 342.4181 017.6668 15.57254190029360 MYSat 1 1 44045U 18092F 19219.91543334 .00001896 00000-0 65889-4 0 9995 2 44045 051.6418 127.6519 0010719 265.8010 094.1746 15.35088185026952 AstroCast 0.2 1 44083U 19018F 19220.77928541 .00000324 00000-0 17525-4 0 9998 2 44083 97.4650 280.3527 0013868 183.1633 176.9517 15.21411539 19682 AISTechSat 3 1 44103U 19018AB 19220.76545973 .00000606 00000-0 29050-4 0 9993 2 44103 97.4534 280.3552 0012964 201.8441 296.6362 15.22677143 19690 AISat 1 1 44104U 19018AC 19220.20854158 .00000500 00000-0 18917-4 0 9994 2 44104 97.5060 282.2142 0057479 247.1160 112.4006 15.30517014 19737 NepaliSat-1 1 44329U 98067QE 19220.12533905 .00005538 00000-0 96352-4 0 9994 2 44329 51.6411 103.1457 0006557 270.5819 89.4419 15.52455021 8090 Raavana-1 1 44330U 98067QF 19219.86908766 .00005615 00000-0 97718-4 0 9999 2 44330 051.6409 104.4340 0006525 268.0847 091.9395 15.52413213008034 Uguisu 1 44331U 98067QG 19219.86668877 .00005714 00000-0 99046-4 0 9992 2 44331 051.6410 104.4185 0006569 270.9388 089.0850 15.52486558008041 Prox-1 1 44339U 19036A 19220.49730773 .00000235 00000-0 58547-5 0 9990 2 44339 24.0002 286.7639 0010871 318.2057 41.7617 14.52653670 6424 OBJECT H 1 44346U 19036H 19220.48770595 .00012618 00000-0 20139-3 0 9995 2 44346 28.5240 273.9189 0390081 212.6584 144.9310 14.96381823 6623 OBJECT J 1 44347U 19036J 19220.39740284 .00040255 00000-0 65384-3 0 9997 2 44347 28.5280 274.1913 0382881 212.0495 145.6264 14.97896770 6618 OBJECT K 1 44348U 19036K 19219.60562583 .00011078 00000-0 17330-3 0 9993 2 44348 28.5175 279.4129 0389575 203.3804 154.8622 14.96819437 6493 NO-104 1 44354U 19036R 19220.18469641 .00009178 00000-0 14059-3 0 9999 2 44354 28.5333 275.3712 0387271 209.5285 148.2903 14.97561211 6563 NO-103 1 44355U 19036S 19219.51556341 .00017027 00000-0 26638-3 0 9997 2 44355 28.5335 279.6891 0385679 202.5271 155.7960 14.97875230 6463 Oculus-ASR 1 44356U 19036T 19220.48390585 .00047378 00000-0 70288-3 0 9994 2 44356 28.5252 272.9124 0383861 213.3752 144.2082 14.99651943 6623 CP9 1 44360U 19036X 19218.48207686 .00023580 00000-0 33213-3 0 9991 2 44360 28.5185 285.8525 0390324 192.4528 166.6163 14.99274056 6197 Move-IIb 1 44398U 19038N 19220.12730807 .00000875 00000-0 54917-4 0 9991 2 44398 97.4914 181.4167 0026922 127.6006 232.7674 15.11603510 5082 SONATE 1 44400U 19038Q 19220.12624638 .00000345 00000-0 23923-4 0 9994 2 44400 97.4925 181.4155 0026770 126.0856 234.2859 15.11637310 5089 JAISAT-1 1 44419U 19038F 19219.84767561 .00000620 00000-0 39358-4 0 9999 2 44419 97.4924 181.1742 0023096 132.0028 228.3174 15.12265886 5049 LightSail-2 1 44420U 19036AC 19220.22517685 .00002768 00000-0 61205-3 0 9993 2 44420 24.0035 288.5195 0017963 323.9962 35.9277 14.52625766 4526 /EX